TimeCDT,TemperatureF,Dew PointF,Humidity,Sea Level PressureIn,VisibilityMPH,Wind Direction,Wind SpeedMPH,Gust SpeedMPH,PrecipitationIn,Events,Conditions,WindDirDegrees,DateUTC
12:53 AM,73.9,69.1,85,30.06,10.0,South,3.5,-,N/A,,Clear,170,2013-08-23 05:53:00
1:53 AM,73.0,69.1,87,30.05,10.0,South,3.5,-,N/A,,Clear,190,2013-08-23 06:53:00
2:53 AM,73.0,69.1,87,30.05,10.0,South,3.5,-,N/A,,Clear,180,2013-08-23 07:53:00
3:53 AM,71.1,68.0,90,30.06,9.0,Calm,Calm,-,N/A,,Clear,0,2013-08-23 08:53:00
4:53 AM,69.1,66.9,93,30.07,6.0,Calm,Calm,-,N/A,,Clear,0,2013-08-23 09:53:00
5:53 AM,69.1,66.9,93,30.08,8.0,Calm,Calm,-,N/A,,Clear,0,2013-08-23 10:53:00
6:53 AM,69.1,66.0,90,30.08,6.0,Calm,Calm,-,N/A,,Clear,0,2013-08-23 11:53:00
7:53 AM,72.0,69.1,91,30.09,5.0,Calm,Calm,-,N/A,,Clear,0,2013-08-23 12:53:00
8:53 AM,78.1,71.1,79,30.09,9.0,Calm,Calm,-,N/A,,Clear,0,2013-08-23 13:53:00
9:53 AM,82.9,70.0,65,30.10,10.0,SSW,3.5,-,N/A,,Clear,200,2013-08-23 14:53:00
10:53 AM,87.1,70.0,57,30.10,10.0,Calm,Calm,-,N/A,,Clear,0,2013-08-23 15:53:00
11:53 AM,88.0,69.1,53,30.09,10.0,Calm,Calm,-,N/A,,Clear,0,2013-08-23 16:53:00
12:53 PM,89.1,70.0,53,30.08,10.0,East,4.6,-,N/A,,Clear,90,2013-08-23 17:53:00
1:53 PM,89.1,69.1,52,30.06,10.0,Calm,Calm,-,N/A,,Scattered Clouds,0,2013-08-23 18:53:00
2:53 PM,91.0,69.1,48,30.05,10.0,SW,4.6,-,N/A,,Mostly Cloudy,230,2013-08-23 19:53:00
3:53 PM,91.0,69.1,48,30.04,10.0,ESE,3.5,-,N/A,,Mostly Cloudy,120,2013-08-23 20:53:00
4:53 PM,91.0,68.0,47,30.02,10.0,SSE,6.9,-,N/A,,Clear,150,2013-08-23 21:53:00
5:53 PM,89.1,68.0,50,30.02,10.0,SSE,5.8,-,N/A,,Clear,160,2013-08-23 22:53:00
6:53 PM,84.9,70.0,61,30.03,10.0,South,4.6,-,N/A,,Clear,180,2013-08-23 23:53:00
7:53 PM,81.0,71.1,72,30.04,10.0,SSE,3.5,-,N/A,,Clear,160,2013-08-24 00:53:00
8:53 PM,79.0,70.0,74,30.04,10.0,SE,3.5,-,N/A,,Clear,140,2013-08-24 01:53:00
9:53 PM,77.0,70.0,79,30.05,10.0,Calm,Calm,-,N/A,,Clear,0,2013-08-24 02:53:00
10:53 PM,75.0,69.1,82,30.05,10.0,SE,3.5,-,N/A,,Clear,140,2013-08-24 03:53:00
11:53 PM,73.9,69.1,85,30.06,10.0,SE,4.6,-,N/A,,Clear,130,2013-08-24 04:53:00